Other Surface Observations
Issued by NWS Tucson, AZ

Home | Current Version | Previous Version | Text Only | Print | Product List | Glossary On
Versions: 1 2 3 4 5 6 7 8 9 10 11 12 13 14 15 16 17 18 19 20 21 22 23 24 25 26 27 28 29 30 31 32 33 34 35 36 37 38 39 40 41 42 43 44 45 46 47 48 49 50
000
SXUS55 KTWC 042315
OSOTWC

WEATHER ROUNDUP FOR SOUTHEAST ARIZONA
NATIONAL WEATHER SERVICE TUCSON AZ
415 PM MST WED MAR 04 2015

AZZ504>506-514-050015-
LOCATION       SKY/WX    TMP DP  RH WIND       PRES   REMARKS
TUCSON         NOT AVBL
DAVIS-MONTHAN  SUNNY     61  30  31 NW13G21   30.00R
CHILDRENS PARK N/A       62  32  32 NW9               PIMA CO DEQ
ALVERNON/22ND  N/A      N/A N/A N/A N/A               PIMA CO DEQ
CHERRY/GLENN   N/A      N/A N/A N/A N/A               PIMA CO DEQ
TANGERINE      N/A       62 N/A N/A NW6               PIMA CO DEQ
CONTL RANCH    N/A       64  35  34 NW8               PIMA CO DEQ
GRANT/1ST      N/A       62  31  31 NW8               PIMA CO DEQ
CRAYCROFT/22ND N/A      N/A N/A N/A N/A               PIMA CO DEQ
GOLFLINKS/KOLB N/A       62  29  29 NW10              PIMA CO DEQ
AJO/12TH       N/A       61  30  31 W8                PIMA CO DEQ
SAGUARO EAST   N/A      N/A N/A N/A N/A               PIMA CO DEQ
FAIRGROUNDS    N/A       60 N/A N/A NW10              PIMA CO DEQ
SAGUARO        N/A       65  31  28 W11G20            *SABINO CYN
SAN CARLOS     N/A       61  25  25 NW6G12            *SAN CARLOS
GREEN VALLEY   N/A       62  31  31 N9                PIMA CO DEQ
HORSE CAMP CYN N/A       50  32  49 W17G27            *ARAVAIPA CYN
RINCON MTNS    N/A       36  29  76 W2                *NR MANNING CAMP
$$

AZZ509>511-050015-
LOCATION       SKY/WX    TMP DP  RH WIND       PRES   REMARKS
SAFFORD        SUNNY     63  20  19 NW20G30   29.95R
STRAY HORSE    N/A       37  19  47 W8G15             *
TRAIL CABIN    N/A       51  14  22 W9G16             *N OF GRANVILLE
BLACK HILLS    N/A       62  25  24 NW16G27           *N OF FT THOMAS
DRY LAKE       N/A       39  17  41 N9G15             *NATANES MTNS
NOON CREEK     NOT AVBL
COLUMBINE      N/A       34  33  96 NW4G15            *PINALENO MTNS
GUTHRIE        N/A       49  22  34 W14G32            *SW OF GUTHRIE
$$

AZZ502-503-513-050015-
LOCATION       SKY/WX    TMP DP  RH WIND       PRES   REMARKS
NOGALES        NOT AVBL
SELLS          N/A       65  35  33 NW7G15            *
SASABE         N/A       57  32  39 N5G16             *ALTAR VLY
HOPKINS        N/A       46  30  53 N9G17             *SANTA RITA MTNS
CARR CYN       N/A       50  31  48 S2G11             *W OF HEREFORD
$$

AZZ507-508-512-050015-
LOCATION       SKY/WX    TMP DP  RH WIND       PRES   REMARKS
SIERRA VISTA   PTSUNNY   55  27  33 NW14G20   30.01R
DOUGLAS        NOT AVBL
EMPIRE MTNS    N/A       54  28  36 NW11G21           *LAS CIENEGAS NCA
MULESHOE RANCH N/A       55  33  44 W9G23             *PRESERVE
HEADQUARTERS   N/A       50  25  38 W5G15             *CHIRICAHUA MTNS
$$

.............................NOTES.............................
THIS IS AN AUTOMATED COLLECTIVE WITH MINIMAL QUALITY CONTROL.
PIMA CO DEQ SITES HAVE NONSTANDARD WIND SENSOR HEIGHTS.
PIMA CO DEQ SITES DO NOT REPORT WIND GUSTS.
* INDICATES WIND SENSORS LOCATED AT 20 FEET INSTEAD OF 33 FEET.
..............................KEY..............................
SKY/WX - SKY CONDITION/WEATHER
TMP    - TEMPERATURE IN FAHRENHEIT
DP     - DEWPOINT IN FAHRENHEIT
RH     - RELATIVE HUMIDITY IN PERCENT
WIND   - DIRECTION AND SPEED IN MILES PER HOUR (MPH)
VRB    - VARIABLE WIND DIRECTION
PRES   - MEAN SEA LEVEL PRESSURE IN INCHES OF MERCURY
         F - FALLING PRESSURE   R - RISING PRESSURE
         S - STEADY PRESSURE
VSB    - VISIBILITY IN MILES
HX     - HEAT INDEX IN FAHRENHEIT
WCI    - WIND CHILL INDEX IN FAHRENHEIT
N/A    - NOT AVAILABLE
AFB    - AIR FORCE BASE
         DAVIS-MONTHAN IS DAVIS-MONTHAN AIR FORCE BASE
CYN    - CANYON
MTNS   - MOUNTAINS
NCA    - NATIONAL CONSERVATION AREA
NR     - NEAR
VLY    - VALLEY
CONTL  - CONTINENTAL
PIMA CO DEQ - PIMA COUNTY DEPT OF ENVIRONMENTAL QUALITY



USA.gov is the U.S. government's official web portal to all federal, state and local government web resources and services.